When you browse on this site, cookies collect data to enhance your experience and personalize the content and advertising you see.
Visit our Privacy Policy to learn more. By continuing to use the site, you agree to this use of cookies and data.
  • In Switzerland
  • List of Countries
  • For 7 days
  • Water Temperature
  • Weather Map
  • Weather Widgets
  • user-avatar
    Login

    Hourly Weather Igls

    Today, 2 June, Tuesday

    Time Temperature Precipitation Wind Pressure Humidity
    00:00 +10°C° 0 mm 1 mps 685 mmHg 95%
    01:00 +10°C° 0 mm 1 mps 685 mmHg 96%
    02:00 +9°C° 0 mm 1 mps 685 mmHg 95%
    03:00 +9°C° 0 mm 1 mps 684 mmHg 95%
    04:00 +9°C° 0 mm 1 mps 684 mmHg 95%
    05:00 +11°C° 0 mm 1 mps 685 mmHg 87%
    06:00 +13°C° 0 mm 1 mps 685 mmHg 80%
    07:00 +16°C° 0 mm 1 mps 685 mmHg 69%
    08:00 +18°C° 0 mm 1 mps 686 mmHg 61%
    09:00 +19°C° 0 mm 2 mps 686 mmHg 53%
    10:00 +20°C° 0 mm 2 mps 686 mmHg 45%
    11:00 +20°C° 0.1 mm 2 mps 685 mmHg 45%
    12:00 +21°C° 0.1 mm 3 mps 685 mmHg 45%
    13:00 +21°C° 0.1 mm 3 mps 685 mmHg 46%
    14:00 +21°C° 0.3 mm 3 mps 684 mmHg 49%
    15:00 +20°C° 0.3 mm 3 mps 684 mmHg 52%
    16:00 +20°C° 0.3 mm 2 mps 683 mmHg 55%
    17:00 +19°C° 0.2 mm 2 mps 683 mmHg 62%
    18:00 +17°C° 0.2 mm 2 mps 683 mmHg 69%
    19:00 +16°C° 0.2 mm 1 mps 682 mmHg 76%
    20:00 +14°C° 0 mm 1 mps 682 mmHg 81%
    21:00 +12°C° 0 mm 1 mps 682 mmHg 86%
    22:00 +10°C° 0 mm 1 mps 682 mmHg 92%
    23:00 +10°C° 0 mm 1 mps 681 mmHg 91%

    Tomorrow, 3 June, Wednesday

    Time Temperature Precipitation Wind Pressure Humidity
    00:00 +10°C° 0 mm 1 mps 681 mmHg 91%
    01:00 +9°C° 0 mm 1 mps 681 mmHg 91%
    02:00 +9°C° 0 mm 1 mps 681 mmHg 89%
    03:00 +9°C° 0 mm 1 mps 680 mmHg 88%
    04:00 +9°C° 0 mm 1 mps 680 mmHg 86%
    05:00 +11°C° 0 mm 1 mps 680 mmHg 78%
    06:00 +12°C° 0 mm 0 mps 680 mmHg 70%
    07:00 +14°C° 0 mm 0 mps 680 mmHg 62%
    08:00 +17°C° 0 mm 0 mps 680 mmHg 53%
    09:00 +19°C° 0 mm 0 mps 680 mmHg 43%
    10:00 +23°C° 0 mm 1 mps 680 mmHg 34%
    11:00 +23°C° 0 mm 1 mps 680 mmHg 32%
    12:00 +24°C° 0 mm 1 mps 680 mmHg 30%
    13:00 +25°C° 0 mm 1 mps 679 mmHg 28%
    14:00 +24°C° 0 mm 1 mps 679 mmHg 32%
    15:00 +24°C° 0 mm 1 mps 678 mmHg 35%
    16:00 +23°C° 0 mm 1 mps 678 mmHg 38%
    17:00 +22°C° 0.1 mm 1 mps 677 mmHg 48%
    18:00 +20°C° 0.1 mm 1 mps 677 mmHg 58%
    19:00 +19°C° 0.1 mm 1 mps 676 mmHg 68%
    20:00 +16°C° 0.1 mm 1 mps 676 mmHg 72%
    21:00 +15°C° 0.1 mm 2 mps 676 mmHg 76%
    22:00 +14°C° 0.1 mm 2 mps 676 mmHg 80%
    23:00 +13°C° 0 mm 2 mps 675 mmHg 81%

    Day after tomorrow, 4 June, Thursday

    Time Temperature Precipitation Wind Pressure Humidity
    00:00 +13°C° 0 mm 2 mps 675 mmHg 83%
    01:00 +12°C° 0 mm 2 mps 675 mmHg 85%
    02:00 +12°C° 0 mm 2 mps 674 mmHg 86%
    03:00 +12°C° 0 mm 2 mps 674 mmHg 88%
    04:00 +12°C° 0 mm 2 mps 674 mmHg 89%
    05:00 +13°C° 0.1 mm 1 mps 674 mmHg 86%
    06:00 +14°C° 0.1 mm 1 mps 674 mmHg 82%
    07:00 +15°C° 0.1 mm 1 mps 674 mmHg 79%
    08:00 +15°C° 0.3 mm 1 mps 674 mmHg 81%
    09:00 +15°C° 0.3 mm 1 mps 674 mmHg 83%
    10:00 +15°C° 0.3 mm 1 mps 673 mmHg 85%
    11:00 +16°C° 0.3 mm 1 mps 673 mmHg 82%
    12:00 +16°C° 0.3 mm 2 mps 673 mmHg 80%
    13:00 +17°C° 0.3 mm 2 mps 673 mmHg 78%
    14:00 +16°C° 0.4 mm 2 mps 673 mmHg 80%
    15:00 +16°C° 0.4 mm 2 mps 672 mmHg 82%
    16:00 +16°C° 0.4 mm 2 mps 672 mmHg 85%
    17:00 +15°C° 0.4 mm 2 mps 672 mmHg 87%
    18:00 +14°C° 0.4 mm 2 mps 672 mmHg 89%
    19:00 +14°C° 0.4 mm 2 mps 671 mmHg 92%
    20:00 +13°C° 0.4 mm 1 mps 671 mmHg 93%
    21:00 +13°C° 0.4 mm 1 mps 671 mmHg 95%
    22:00 +12°C° 0.4 mm 1 mps 671 mmHg 96%
    23:00 +12°C° 1.9 mm 1 mps 671 mmHg 97%

    5 June, Friday

    Time Temperature Precipitation Wind Pressure Humidity
    00:00 +12°C° 1.9 mm 1 mps 671 mmHg 97%
    01:00 +12°C° 1.9 mm 1 mps 671 mmHg 98%
    02:00 +11°C° 2.9 mm 1 mps 670 mmHg 98%
    03:00 +11°C° 2.9 mm 1 mps 670 mmHg 98%
    04:00 +10°C° 2.9 mm 1 mps 670 mmHg 98%
    05:00 +10°C° 2 mm 1 mps 671 mmHg 98%
    06:00 +10°C° 2 mm 1 mps 671 mmHg 98%
    07:00 +10°C° 2 mm 1 mps 672 mmHg 98%
    08:00 +10°C° 1.8 mm 1 mps 672 mmHg 98%
    09:00 +10°C° 1.8 mm 1 mps 673 mmHg 97%
    10:00 +10°C° 1.8 mm 1 mps 673 mmHg 97%
    11:00 +10°C° 0.4 mm 1 mps 673 mmHg 97%
    12:00 +10°C° 0.4 mm 1 mps 673 mmHg 96%
    13:00 +11°C° 0.4 mm 1 mps 674 mmHg 95%
    14:00 +11°C° 0.2 mm 1 mps 674 mmHg 92%
    15:00 +12°C° 0.2 mm 1 mps 674 mmHg 89%
    16:00 +13°C° 0.2 mm 1 mps 675 mmHg 86%
    17:00 +13°C° 0.2 mm 1 mps 675 mmHg 87%
    18:00 +12°C° 0.2 mm 1 mps 675 mmHg 89%
    19:00 +12°C° 0.2 mm 1 mps 676 mmHg 91%
    20:00 +11°C° 0 mm 1 mps 676 mmHg 92%
    21:00 +10°C° 0 mm 1 mps 677 mmHg 93%
    22:00 +8°C° 0 mm 1 mps 677 mmHg 94%
    23:00 +8°C° 0 mm 1 mps 677 mmHg 92%

    6 June, Saturday

    Time Temperature Precipitation Wind Pressure Humidity
    00:00 +8°C° 0 mm 1 mps 677 mmHg 91%
    01:00 +6°C° 0 mm 2 mps 677 mmHg 89%
    02:00 +6°C° 0 mm 2 mps 677 mmHg 89%
    03:00 +6°C° 0 mm 2 mps 677 mmHg 89%
    04:00 +6°C° 0 mm 2 mps 677 mmHg 89%
    05:00 +8°C° 0 mm 2 mps 678 mmHg 87%
    06:00 +11°C° 0 mm 1 mps 678 mmHg 84%
    07:00 +13°C° 0 mm 1 mps 679 mmHg 82%
    08:00 +15°C° 0 mm 1 mps 679 mmHg 75%
    09:00 +18°C° 0 mm 1 mps 680 mmHg 68%
    10:00 +20°C° 0 mm 1 mps 680 mmHg 62%
    11:00 +19°C° 0.1 mm 2 mps 680 mmHg 63%
    12:00 +19°C° 0.1 mm 2 mps 680 mmHg 64%
    13:00 +19°C° 0.1 mm 2 mps 680 mmHg 65%
    14:00 +18°C° 0.2 mm 2 mps 679 mmHg 67%
    15:00 +18°C° 0.2 mm 2 mps 679 mmHg 69%
    16:00 +19°C° 0.2 mm 1 mps 679 mmHg 72%
    17:00 +18°C° 0.3 mm 1 mps 679 mmHg 78%
    18:00 +16°C° 0.3 mm 1 mps 679 mmHg 85%
    19:00 +15°C° 0.3 mm 1 mps 679 mmHg 92%
    20:00 +14°C° 0.2 mm 1 mps 679 mmHg 93%
    21:00 +14°C° 0.2 mm 1 mps 679 mmHg 94%
    22:00 +13°C° 0.2 mm 1 mps 679 mmHg 95%
    23:00 +13°C° 0.1 mm 1 mps 679 mmHg 96%

    7 June, Sunday

    Time Temperature Precipitation Wind Pressure Humidity
    00:00 +12°C° 0.1 mm 1 mps 679 mmHg 96%
    01:00 +12°C° 0.1 mm 1 mps 679 mmHg 96%
    02:00 +12°C° 0 mm 1 mps 678 mmHg 96%
    03:00 +12°C° 0 mm 1 mps 678 mmHg 96%
    04:00 +12°C° 0 mm 1 mps 678 mmHg 96%
    05:00 +12°C° 0.7 mm 1 mps 678 mmHg 96%
    06:00 +13°C° 0.7 mm 1 mps 678 mmHg 95%
    07:00 +13°C° 0.7 mm 1 mps 678 mmHg 95%
    08:00 +14°C° 0.6 mm 1 mps 679 mmHg 92%
    09:00 +15°C° 0.6 mm 1 mps 679 mmHg 88%
    10:00 +16°C° 0.6 mm 1 mps 679 mmHg 85%
    11:00 +18°C° 0.3 mm 1 mps 679 mmHg 81%
    12:00 +18°C° 0.3 mm 2 mps 679 mmHg 77%
    13:00 +19°C° 0.3 mm 2 mps 679 mmHg 72%
    14:00 +18°C° 1 mm 2 mps 679 mmHg 78%
    15:00 +17°C° 1 mm 2 mps 679 mmHg 83%
    16:00 +16°C° 1 mm 2 mps 679 mmHg 88%
    17:00 +15°C° 1.8 mm 2 mps 680 mmHg 91%
    18:00 +14°C° 1.8 mm 2 mps 680 mmHg 95%
    19:00 +12°C° 1.8 mm 1 mps 680 mmHg 98%
    20:00 +12°C° 0.8 mm 1 mps 680 mmHg 98%
    21:00 +12°C° 0.8 mm 1 mps 681 mmHg 98%
    22:00 +11°C° 0.8 mm 1 mps 681 mmHg 98%
    23:00 +11°C° 0.4 mm 1 mps 681 mmHg 98%
    Show more